This demonstration page uses our WeatherBlox Daily Observations layout. Learn more.

Left ArrowRight Arrow

Hourly Observations for August 30, 2018

Temp ( °F °C ) Dew Point ( °F °C ) Humidity (%) Winds ( mph kmh ) Pressure ( in mb ) Visibility ( mi km ) Precip ( " mm )
12:15 am 00:15 Cloudy 67 19.5 66 18.8 96 96 N 6 9 30.12 1020 10 16 0.00 0.00
12:35 am 00:35 Cloudy 67 19.5 66 18.8 96 96 N 6 9 30.12 1020 10 16 0.00 0.00
12:55 am 00:55 Cloudy 67 19.5 66 19 97 97 NNW 3 6 30.12 1020 10 16 0.00 0.00
1:15 am 01:15 Cloudy 67 19.3 66 18.9 98 98 N 5 7 30.12 1020 10 16 0.00 0.00
1:35 am 01:35 Cloudy 67 19.2 66 18.9 98 98 Calm 30.12 1020 10 16 0.00 0.00
1:55 am 01:55 Cloudy 66 19.1 66 18.8 98 98 N 3 6 30.12 1020 10 16 0.00 0.00
2:15 am 02:15 Cloudy 66 19.1 66 18.8 98 98 NNE 3 6 30.12 1020 10 16 0.00 0.00
2:35 am 02:35 Cloudy 66 19 66 18.7 98 98 N 5 7 30.12 1020 10 16 0.00 0.00
2:55 am 02:55 Cloudy 66 18.8 65 18.6 99 99 N 5 7 30.12 1020 10 16 0.00 0.00
3:15 am 03:15 Cloudy 66 18.8 66 18.7 99 99 NNE 6 9 30.12 1020 10 16 0.00 0.00
3:35 am 03:35 Cloudy 66 18.8 66 18.7 99 99 N 6 9 30.12 1020 10 16 0.00 0.00
3:55 am 03:55 Cloudy 65 18.6 65 18.5 99 99 N 5 7 30.15 1021 10 16 0.00 0.00
4:15 am 04:15 Cloudy 65 18.5 64 17.6 95 95 N 7 11 30.12 1020 10 16 0.00 0.00
4:35 am 04:35 Cloudy 65 18.3 64 17.7 96 96 N 6 9 30.12 1020 10 16 0.00 0.00
4:55 am 04:55 Cloudy 65 18.1 62 16.9 93 93 N 6 9 30.15 1021 10 16 0.00 0.00
5:15 am 05:15 Cloudy 64 17.7 62 16.5 93 93 N 6 9 30.12 1020 10 16 0.00 0.00
5:35 am 05:35 Cloudy 64 17.5 61 16.1 92 92 N 7 11 30.15 1021 10 16 0.00 0.00
5:55 am 05:55 Mostly Cloudy 62 16.7 61 16.2 97 97 N 6 9 30.15 1021 10 16 0.00 0.00
6:15 am 06:15 Partly Cloudy 61 16.1 61 16 99 99 N 6 9 30.15 1021 10 16 0.00 0.00
6:35 am 06:35 Clear 60 15.6 60 15.6 100 100 N 5 7 30.15 1021 10 16 0.00 0.00
6:55 am 06:55 Clear 59 15.2 59 15.2 100 100 N 5 7 30.15 1021 10 16 0.00 0.00
7:15 am 07:15 Partly Cloudy 59 15.1 59 15.1 100 100 N 6 9 30.15 1021 10 16 0.00 0.00
7:35 am 07:35 Cloudy 59 15.2 59 15.2 100 100 N 6 9 30.15 1021 10 16 0.00 0.00
7:55 am 07:55 Partly Cloudy 59 14.8 59 14.8 100 100 NNE 6 9 30.18 1022 10 16 0.00 0.00
8:15 am 08:15 Sunny 58 14.7 58 14.7 100 100 NNE 3 6 30.18 1022 10 16 0.00 0.00
8:35 am 08:35 Sunny 60 15.3 60 15.3 100 100 NNE 6 9 30.18 1022 10 16 0.00 0.00
8:55 am 08:55 Mostly Cloudy 61 16.2 60 15.6 96 96 NNE 7 11 30.18 1022 10 16 0.00 0.00
9:15 am 09:15 Partly Cloudy 62 16.5 60 15.5 94 94 NNE 7 11 30.18 1022 10 16 0.00 0.00
9:35 am 09:35 Sunny 63 17.1 60 15.6 91 91 N 10 17 30.18 1022 10 16 0.00 0.00
9:55 am 09:55 Sunny 64 17.6 59 15.1 85 85 NNE 8 13 30.18 1022 10 16 0.00 0.00
10:15 am 10:15 Sunny 65 18.4 59 15.2 82 82 NNE 6 9 30.18 1022 10 16 0.00 0.00
10:35 am 10:35 Sunny 66 18.9 59 15.2 79 79 Calm 30.18 1022 10 16 0.00 0.00
10:55 am 10:55 Sunny 67 19.3 58 14.3 73 73 NE 6 9 30.18 1022 10 16 0.00 0.00
11:15 am 11:15 Sunny 68 19.8 58 14.4 71 71 NE 5 7 30.18 1022 10 16 0.00 0.00
11:35 am 11:35 Sunny 68 20.2 58 14.5 70 70 N 5 7 30.18 1022 10 16 0.00 0.00
11:55 am 11:55 Sunny 69 20.4 59 14.9 71 71 NE 6 9 30.18 1022 10 16 0.00 0.00
12:15 pm 12:15 Sunny 70 21 58 14.7 67 67 NE 5 7 30.18 1022 10 16 0.00 0.00
12:35 pm 12:35 Sunny 70 21.1 58 14.3 65 65 NE 7 11 30.18 1022 10 16 0.00 0.00
12:55 pm 12:55 Sunny 71 21.4 59 14.9 67 67 NE 5 7 30.18 1022 10 16 0.00 0.00
1:15 pm 13:15 Sunny 72 22.1 60 15.6 67 67 NNE 5 7 30.15 1021 10 16 0.00 0.00
1:35 pm 13:35 Sunny 72 22.3 59 15.1 64 64 ENE 3 6 30.15 1021 10 16 0.00 0.00
1:55 pm 13:55 Sunny 73 22.6 60 15.8 66 66 NE 5 7 30.15 1021 10 16 0.00 0.00
2:15 pm 14:15 Sunny 73 22.7 59 15.2 63 63 Calm 30.09 1019 10 16 0.00 0.00
2:35 pm 14:35 Sunny 74 23.1 60 15.5 62 62 Calm 30.12 1020 10 16 0.00 0.00
2:55 pm 14:55 Sunny 74 23.5 60 15.5 61 61 Calm 30.12 1020 10 16 0.00 0.00
3:15 pm 15:15 Sunny 75 23.8 60 15.8 61 61 Calm 30.09 1019 10 16 0.00 0.00
3:35 pm 15:35 Sunny 75 24 61 16.2 62 62 NE 3 6 30.09 1019 10 16 0.00 0.00
3:55 pm 15:55 Sunny 76 24.2 61 16.1 61 61 Calm 30.09 1019 10 16 0.00 0.00
4:15 pm 16:15 Sunny 76 24.2 61 16 60 60 Calm 30.12 1020 10 16 0.00 0.00
4:35 pm 16:35 Sunny 76 24.2 60 15.6 59 59 Calm 30.09 1019 10 16 0.00 0.00
4:55 pm 16:55 Sunny 76 24.6 61 15.9 58 58 Calm 30.09 1019 10 16 0.00 0.00
5:15 pm 17:15 Sunny 76 24.5 60 15.5 57 57 N 5 7 30.09 1019 10 16 0.00 0.00
5:35 pm 17:35 Sunny 76 24.6 60 15.8 58 58 NNW 5 7 30.09 1019 10 16 0.00 0.00
5:55 pm 17:55 Sunny 75 24.1 59 15 57 57 Calm 30.09 1019 10 16 0.00 0.00
6:15 pm 18:15 Sunny 76 24.2 59 15.2 57 57 NNE 5 7 30.09 1019 10 16 0.00 0.00
6:35 pm 18:35 Sunny 75 23.7 59 14.8 58 58 N 5 7 30.09 1019 10 16 0.00 0.00
6:55 pm 18:55 Sunny 73 22.7 60 15.4 64 64 N 5 7 30.09 1019 10 16 0.00 0.00
7:15 pm 19:15 Sunny 72 22.4 62 16.5 69 69 N 3 6 30.09 1019 10 16 0.00 0.00
7:35 pm 19:35 Sunny 70 21.3 62 16.5 74 74 N 5 7 30.12 1020 10 16 0.00 0.00
7:55 pm 19:55 Sunny 68 20 62 16.8 82 82 N 5 7 30.12 1020 10 16 0.00 0.00
8:15 pm 20:15 Sunny 65 18.6 62 16.7 89 89 NNE 5 7 30.12 1020 10 16 0.00 0.00
8:35 pm 20:35 Clear 64 17.9 62 16.5 92 92 NE 5 7 30.12 1020 10 16 0.00 0.00
8:55 pm 20:55 Clear 63 17 61 16.2 95 95 NNE 3 6 30.12 1020 10 16 0.00 0.00
9:15 pm 21:15 Clear 62 16.8 61 16 95 95 NE 3 6 30.12 1020 10 16 0.00 0.00
9:35 pm 21:35 Clear 61 16.3 60 15.8 97 97 Calm 30.12 1020 10 16 0.00 0.00
9:55 pm 21:55 Clear 61 16 60 15.6 97 97 NE 5 7 30.12 1020 10 16 0.00 0.00
10:15 pm 22:15 Clear 62 16.6 60 15.3 92 92 NE 5 7 30.12 1020 10 16 0.00 0.00
10:35 pm 22:35 Clear 62 16.7 59 15.2 91 91 ENE 3 6 30.12 1020 10 16 0.00 0.00
10:55 pm 22:55 Clear 61 16.2 60 15.3 94 94 Calm 30.15 1021 10 16 0.00 0.00
11:15 pm 23:15 Clear 60 15.5 60 15.4 99 99 Calm 30.12 1020 10 16 0.00 0.00
11:35 pm 23:35 Clear 61 16 59 15.2 95 95 Calm 30.12 1020 10 16 0.00 0.00
11:55 pm 23:55 Clear 61 15.9 60 15.5 97 97 Calm 30.15 1021 10 16 0.00 0.00

Powered by AerisWeather